User: anonymous   Login
Location: Unspecified
(0.0000°N, 0.0000°E)
Time: 10:48:06
(UTC+00:00)
Language:

GONETS M03 - Orbit

View from above orbital plane
View from above orbital plane
View from above satellite
View from above satellite

Ground track
Ground track

The orbit data is extracted from the following two-line orbital elements,

1 38734U 12041B   17202.76756105 +.00000024 +00000-0 +10000-3 0  9992
2 38734 082.4768 301.6586 0015093 341.2579 018.7953 12.44791079226063
Epoch (UTC): 21 July 2017 18:25:17
Eccentricity: 0.0015093
inclination: 82.4768°
perigee height: 1474 km
apogee height: 1498 km
right ascension of ascending node: 301.6586°
argument of perigee: 341.2579°
revolutions per day: 12.44791079
mean anomaly at epoch: 18.7953°
orbit number at epoch: 22606

The dashed part of the orbit path shows where the satellite is in the earth's shadow,  

DLR